FENGYUN 1C DEB

Satellite information

Favourite Embed

Satellite Type and Status

DEBRISIN ORBIT

Key statistics

Satellite FENGYUN 1C DEB at a glance.

Uptime

9714

Days in orbit

Revolutions

≈ 14.3

Per day

Orbit

SSO

Sun Synchronous Orbit

Inclination

98.6

Latest

Satellite identification and parameters

Extended collection of information and parameters for FENGYUN 1C DEB.

Object identification

Identified? True

Debris? True

Object name: FENGYUN 1C DEB

International designator: 1999-025BUM

Object number (NORAD): 31449

Object ID (CCSDS): 31449

Country: PEOPLES REPUBLIC OF CHINA (PRC)

Current information (Y/N): Y

RCS size: SMALL

Orbital parameters

Period: 100.439 minutes

Inclination: 98.5553 deg

SMA: 7157.51 km

Apoapsis: 882.481 km

Periapsis: 676.269 km

RAAN: 43.4188 deg

Eccentricy: 0.0144053

Argument of periapsis: 274.279 deg

Mean anomaly: 84.1945 deg

Mean motion: 14.33705066 rev/day

Mean motion (dot): 0.00000981 rev/day2

B* drag term: 0.00033048 1/REarth

Two-line elements (TLE)

Creation date: Dec. 11, 2025, 7:46 a.m.

Reference frame: TEME

Reference center: EARTH

Epoch: Dec. 10, 2025, 9:12 p.m. UTC

TLE line 0: 0 FENGYUN 1C DEB

TLE line 1: 1 31449U 99025BUM 25344.88383693 .00000981 00000-0 33048-3 0 9991

TLE line 2: 2 31449 98.5553 43.4188 0144053 274.2790 84.1945 14.33705066976103

Live tracking on map

Real-time ground track for satellite FENGYUN 1C DEB.

In-orbit conjunctions

A list of the most updated potential collisions computed for object FENGYUN 1C DEB.

Target Orbit TCA Probability of collision Miss distance Type
COSMOS 886 DEB MEO 2024-11-12 13:30:15 0.001694695 554.0 (m) DEBRIS
FENGYUN 1C DEB SSO 2024-08-25 17:40:15 0.0001622367 206.0 (m) DEBRIS
DELTA 1 DEB SSO 2024-08-24 22:00:09 0.0001009419 626.0 (m) DEBRIS

Associated space launch

Chinese polar orbiting meteorological satellite

FENGYUN 1C DEB was lifted into orbit during the mission ‘Long March 4B | Feng Yun 1C’, on board a Long March 4B space rocket.

The launch took place on May 10, 1999, 1:33 a.m. from Launch Complex 7.

For more information about the launch, click the button.

Launch to space Long March 4B | Feng Yun 1C
Long March 4B | Feng Yun 1C

Agency: N/A

Status: Launch Successful

Launch date: May 10, 1999, 1:33 a.m. UTC

Rocket: Long March 4B

Launch pad: Launch Complex 7

Location: Taiyuan Satellite Launch Center, People's Republic of China

...

Latest news about this satellite

There are no fresh news available about this satellite. Check back as we update our databases every day.


Newsletter sign-up

Weekly statistics, charts and insights to help you stay on top of the space industry.